METEOR 2-11 DEB, 60004

Orbit data source: Space-Track

METEOR 2-11 DEB, 60004 is space debris in LEO originally from a launch on Thu, 05 Jul 1984 UTC launched from the Plesetsk Missile And Space Complex (PKMTR). Debris objects in space refer to the collection of defunct objects orbiting the Earth. Examples of debris include non-operational satellites, rocket bodies, and fragments generated from explosions, collisions, or faulty payload assembly.

Loading next visibility...
Identifier
60004, 1984-072Z
Orbit
LEO
Country
Flag of CISCIS
Related business
Manufacturer
Unknown
Mission
Spacecraft
Bus & Motor
Unknown
Mass
Unknown
Launch date (UTC)
1984-07-05 (41 years ago)
Launch vehicle
Unknown
Launch site
Plesetsk Missile And Space Complex (PKMTR)
Object type
Payload
Rocket body
Debris
Shape & HBR
Unknown shape, 0.1 m
Radar Cross Section
Small (<0.1 m²)

Expand to show TLE details & history
Last TLE update: 2 days ago

TLE from 2 days ago
0 METEOR 2-11 DEB
1 60004U 84072Z   25300.41865352  .00002368  00000-0  16004-2 0  9997
2 60004  82.5172 189.4872 0006730 180.2757 179.8410 14.00004328431631
Epoch: 2025-10-27T10:02Z
TLE epoch observation values (Epoch: 2025-10-27T10:02:51.664Z)
Latitude
0.00005°
Longitude
2.75116°
Altitude
901.598 km
Speed
7.399 km/s
True Right ascension
12h 37m 56s
True Declination
0° 00' 00"
Sunlit
Object was in daylight at epoch
Visualization orbit readout
Latitude
Unknown
Longitude
Unknown
Altitude
Unknown
Speed
Unknown
Apparent Right ascension
Unknown
Apparent Declination
Unknown
Sunlit
N/A
Visualization observer readout
Local Sidereal Time
19:27:06
Azimuth
Unknown
Elevation
Unknown
Doppler factor
Unknown
Orbital elements
Apogee altitude
895.803 km
Perigee altitude
886.019 km
Semi-major axis
7,269.048 km
Eccentricity
0.00067
Inclination
82.5172°
RAAN
189.4872°
Arg. of periapsis
180.2757°
True anomaly
179.84121°
Mean anomaly
179.841°
Eccentric anomaly
179.84111°
Mean motion
3.50209 °/min
Orbital period
102.8 mins
BSTAR
0.0016004
Loading maneuver chart data...
Computing Atmospheric mass density...
Loading historical data...
Loading historical data...
Loading historical data...
Loading historical data...
Loading historical data...
Loading historical data...
Loading historical data...

Documentation

Showing up to 5 results
|